[[{"header":{"parameterUnit":"m.s-1","parameterCategory":1,"la1":30.2991,"la2":30.254,"lo1":-89.0895,"lo2":-89.0444,"dy":0.0017,"dx":0.0017,"nx":28,"ny":28,"refTime":"2025-12-10T03:00:00:Z","depth":0,"parameterNumber":2,"parameterNumberName":"U-component_of_WINDS"},"data":[0,0,0,0,0,0,0,0,0,0,0,0,0,0,0,0,0,0,0,0,0,0,0,0,0,0,0,0,0,0,0,0,0,0,0,0,0,0,0,0,0,0,0,0,0,0,0,0,0,0,0,0,0,0,0,0,0,0,-0.5099,-0.5098,0,-0.5069,-0.5068,-0.5068,-0.5018,-0.5017,-0.5016,-0.5015,-0.4986,-0.4986,-0.4986,0,0,0,0,0,0,0,0,0,0,0,0,0,-0.5115,-0.5115,-0.5099,-0.5098,-0.5098,-0.5069,-0.5068,-0.5068,-0.5018,-0.5017,-0.5016,-0.5015,-0.4986,-0.4986,-0.4986,0,0,0,0,0,0,0,0,0,0,0,0,0,-0.5099,-0.5115,-0.5099,-0.5069,-0.5067,-0.5069,-0.5068,-0.5068,-0.5018,-0.5017,-0.5015,-0.5014,-0.4986,-0.4986,-0.4986,-0.5015,0,0,-0.4986,-0.4986,0,0,0,0,0,0,0,0,-0.51,-0.5098,-0.5074,-0.5071,-0.5068,-0.5045,-0.5063,-0.505,-0.5019,-0.5037,-0.5015,-0.5013,-0.5007,-0.5005,-0.5003,-0.5013,-0.5012,-0.4986,-0.4986,-0.4987,-0.4987,0,0,0,0,0,0,0,-0.5101,-0.5099,-0.5087,-0.5074,-0.507,-0.5059,-0.5055,-0.5061,-0.503,-0.5035,-0.5031,-0.5028,-0.5005,-0.5003,-0.5002,-0.5012,-0.4986,-0.4987,-0.4987,-0.4987,-0.5047,-0.5048,0,0,0,0,0,0,-0.5106,-0.5101,-0.5088,-0.5086,-0.5081,-0.5059,-0.5055,-0.5054,-0.503,-0.5025,-0.503,-0.5026,-0.5003,-0.5002,-0.5,-0.5034,-0.4987,-0.4987,-0.4987,-0.5045,-0.5047,-0.5048,0,0,0,0,0,0,-0.5107,-0.5105,-0.5089,-0.5092,-0.5089,-0.5061,-0.506,-0.5054,-0.5052,-0.5026,-0.502,-0.5033,-0.5002,-0.5,-0.5012,-0.5032,-0.4987,-0.4987,-0.5043,-0.5046,-0.5048,-0.51,0,0,0,0,0,0,-0.5107,-0.5106,-0.5116,-0.5093,-0.5089,-0.51,-0.5061,-0.5055,-0.5052,-0.5047,-0.5027,-0.5022,-0.5001,-0.5012,-0.5012,-0.5031,-0.4987,-0.5041,-0.5044,-0.5047,-0.5096,-0.5104,-0.511,0,0,0,0,0,-0.5108,-0.5132,-0.5117,-0.5115,-0.5101,-0.5102,-0.51,-0.5074,-0.5054,-0.5064,-0.5048,-0.5023,-0.503,-0.5014,-0.5013,-0.5033,-0.504,-0.5043,-0.5047,-0.5093,-0.5102,-0.511,0,0,0,0,0,0,-0.5158,-0.5128,-0.5111,-0.5128,-0.5118,-0.5093,-0.5105,-0.5084,-0.5079,-0.5075,-0.5044,-0.504,-0.5056,-0.5045,-0.5028,-0.506,-0.5031,-0.5035,-0.5067,-0.5075,-0.5082,-0.5084,-0.4987,0,0,0,0,0,-0.5171,-0.5174,-0.5147,-0.5165,-0.5161,-0.5134,-0.5133,-0.5114,-0.5103,-0.5098,-0.5082,-0.5073,-0.5072,-0.5073,-0.5071,-0.5095,-0.509,-0.5108,-0.5115,-0.5121,-0.5124,-0.5137,-0.5145,-0.506,-0.506,-0.506,0,0,-0.5198,-0.5182,-0.5186,-0.5175,-0.5164,-0.5169,-0.5131,-0.5136,-0.5139,-0.5099,-0.5109,-0.5098,-0.5085,-0.5103,-0.511,-0.5094,-0.5147,-0.5125,-0.513,-0.513,-0.5142,-0.515,-0.5157,-0.5062,-0.5062,-0.5061,0,0,-0.525,-0.5237,-0.5251,-0.5242,-0.5227,-0.5209,-0.5213,-0.5192,-0.5182,-0.5192,-0.5162,-0.5166,-0.5166,-0.5158,-0.5155,-0.5205,-0.5183,-0.5205,-0.5241,-0.5254,-0.5261,-0.5267,-0.5286,-0.5293,-0.5209,-0.5209,-0.5209,0,-0.5285,-0.529,-0.5261,-0.5269,-0.5266,-0.5229,-0.5244,-0.5236,-0.5222,-0.5221,-0.5204,-0.5204,-0.5193,-0.5209,-0.5222,-0.5219,-0.5223,-0.5207,-0.5262,-0.5268,-0.5273,-0.5291,-0.5298,-0.5212,-0.5211,-0.5211,-0.5211,0,-0.5335,-0.5338,-0.5351,-0.5339,-0.5337,-0.5348,-0.5322,-0.5324,-0.5305,-0.529,-0.5301,-0.5286,-0.5282,-0.5284,-0.5266,-0.5298,-0.529,-0.5268,-0.5238,-0.5285,-0.5301,-0.5308,-0.5216,-0.5215,-0.5214,-0.5213,0,0,-0.5417,-0.5388,-0.5394,-0.5388,-0.537,-0.5372,-0.5382,-0.5378,-0.5381,-0.5372,-0.5381,-0.5382,-0.5363,-0.5358,-0.5339,-0.5351,-0.5393,-0.5328,-0.5327,-0.5341,-0.543,-0.5447,-0.5455,-0.5378,-0.5379,-0.538,-0.5431,0,-0.5465,-0.548,-0.5455,-0.5477,-0.548,-0.5447,-0.5456,-0.5446,-0.5432,-0.5434,-0.5419,-0.5421,-0.5394,-0.5391,-0.5401,-0.5386,-0.5411,-0.5382,-0.5387,-0.5387,-0.5392,-0.5463,-0.5481,-0.553,-0.5437,-0.5438,-0.5439,0,-0.5523,-0.5518,-0.554,-0.5521,-0.5522,-0.553,-0.5525,-0.5527,-0.5515,-0.5505,-0.5501,-0.5478,-0.5488,-0.5459,-0.5472,-0.5454,-0.5454,-0.5447,-0.5448,-0.5449,-0.5417,-0.5466,-0.5545,-0.5553,-0.5449,-0.5448,-0.5447,0,-0.5582,-0.5581,-0.5594,-0.559,-0.5568,-0.5575,-0.5567,-0.5554,-0.5553,-0.5549,-0.5548,-0.5545,-0.5543,-0.5542,-0.552,-0.55,-0.5537,-0.5505,-0.5529,-0.553,-0.5539,-0.5539,-0.5619,-0.5538,-0.5538,-0.5538,-0.5537,0,-0.5639,-0.5654,-0.562,-0.5628,-0.5645,-0.5616,-0.5634,-0.5622,-0.5611,-0.5617,-0.5588,-0.5594,-0.5564,-0.5567,-0.555,-0.5565,-0.5564,-0.5557,-0.5552,-0.556,-0.5561,-0.556,-0.5557,-0.554,-0.5539,-0.5539,-0.5538,0,-0.5708,-0.5686,-0.5698,-0.5677,-0.5672,-0.5685,-0.5667,-0.5675,-0.5659,-0.5667,-0.5668,-0.5644,-0.5646,-0.5624,-0.5622,-0.5611,-0.5635,-0.5624,-0.5639,-0.5635,-0.5661,-0.5659,-0.5745,-0.5755,-0.5666,-0.5667,-0.5668,0,-0.5747,-0.5757,-0.5738,-0.5739,-0.5732,-0.5736,-0.5735,-0.5708,-0.5708,-0.5697,-0.5706,-0.5707,-0.5706,-0.5712,-0.5695,-0.5694,-0.5684,-0.5714,-0.5683,-0.5691,-0.5686,-0.5686,-0.5687,-0.572,-0.5721,-0.5722,-0.5723,0,-0.5818,-0.5806,-0.5806,-0.5802,-0.5802,-0.5798,-0.5792,-0.5796,-0.5766,-0.5769,-0.5771,-0.5771,-0.5769,-0.5771,-0.5767,-0.5759,-0.5737,-0.5733,-0.5738,-0.5747,-0.5756,-0.5753,-0.5657,-0.5731,-0.573,-0.573,-0.5729,-0.5729,-0.5873,-0.5882,-0.5869,-0.587,-0.5863,-0.5859,-0.5865,-0.585,-0.5852,-0.5849,-0.5833,-0.5839,-0.5828,-0.5821,-0.5815,-0.582,-0.5805,-0.5813,-0.5816,-0.5818,-0.5823,-0.5754,-0.5819,-0.5819,-0.5818,-0.5818,-0.5818,0,-0.5944,-0.5934,-0.5935,-0.5928,-0.5929,-0.5908,-0.5901,-0.5903,-0.5909,-0.5901,-0.5901,-0.5904,-0.5906,-0.5889,-0.5889,-0.5896,-0.5886,-0.5897,-0.5897,-0.5895,-0.5836,-0.5831,-0.5905,-0.5905,-0.5905,-0.5905,-0.5905,-0.5905,-0.598,-0.5994,-0.5982,-0.5992,-0.5982,-0.5988,-0.5986,-0.5982,-0.5975,-0.5981,-0.5982,-0.5971,-0.596,-0.5959,-0.5959,-0.5955,-0.5956,-0.5971,-0.5963,-0.5908,-0.5899,-0.5891,-0.5887,-0.5971,-0.5972,-0.6022,-0.6023,-0.6023]},{"header":{"parameterUnit":"m.s-1","parameterCategory":1,"la1":30.2991,"la2":30.254,"lo1":-89.0895,"lo2":-89.0444,"dy":0.0017,"dx":0.0017,"nx":28,"ny":28,"refTime":"2025-12-10T03:00:00:Z","depth":0,"parameterNumber":3,"parameterNumberName":"V-component_of_WINDS"},"data":[0,0,0,0,0,0,0,0,0,0,0,0,0,0,0,0,0,0,0,0,0,0,0,0,0,0,0,0,0,0,0,0,0,0,0,0,0,0,0,0,0,0,0,0,0,0,0,0,0,0,0,0,0,0,0,0,0,0,1.9563,1.9563,0,1.9547,1.9547,1.9547,1.9532,1.9531,1.9531,1.9531,1.9514,1.9514,1.9514,0,0,0,0,0,0,0,0,0,0,0,0,0,1.9578,1.9578,1.9563,1.9563,1.9562,1.9547,1.9547,1.9547,1.9532,1.9531,1.9531,1.9531,1.9514,1.9514,1.9514,0,0,0,0,0,0,0,0,0,0,0,0,0,1.9568,1.9578,1.9563,1.9553,1.9552,1.9547,1.9547,1.9547,1.9532,1.9531,1.9531,1.9531,1.9515,1.9514,1.9514,1.9517,0,0,1.9513,1.9512,0,0,0,0,0,0,0,0,1.9568,1.9567,1.9555,1.9554,1.9552,1.9541,1.9546,1.9537,1.9532,1.9539,1.9531,1.9531,1.9523,1.9522,1.952,1.9517,1.9516,1.9513,1.9512,1.9512,1.9512,0,0,0,0,0,0,0,1.9569,1.9568,1.9557,1.9554,1.9553,1.9549,1.9547,1.9544,1.9533,1.9539,1.9538,1.9536,1.9523,1.952,1.952,1.9516,1.9513,1.9512,1.9512,1.9512,1.9513,1.9513,0,0,0,0,0,0,1.9571,1.9568,1.9557,1.9556,1.956,1.9549,1.9547,1.9545,1.9533,1.9531,1.9536,1.9535,1.9521,1.952,1.9519,1.9521,1.9512,1.9512,1.9512,1.9513,1.9513,1.9513,0,0,0,0,0,0,1.9572,1.957,1.9558,1.9562,1.956,1.9549,1.9547,1.9545,1.9543,1.9531,1.9529,1.9536,1.9521,1.9519,1.9518,1.9521,1.9512,1.9511,1.9513,1.9513,1.9513,1.9527,0,0,0,0,0,0,1.9572,1.9571,1.9572,1.9562,1.956,1.9557,1.9547,1.9545,1.9542,1.9541,1.9531,1.9529,1.9521,1.9518,1.9517,1.952,1.9511,1.9512,1.9513,1.9513,1.9527,1.9528,1.953,0,0,0,0,0,1.9573,1.9577,1.9573,1.9571,1.9562,1.9557,1.9556,1.9547,1.9542,1.9544,1.9536,1.9529,1.9521,1.9518,1.9517,1.952,1.9512,1.9513,1.9513,1.9526,1.9528,1.9529,0,0,0,0,0,0,1.9588,1.9575,1.957,1.9571,1.9566,1.9555,1.9556,1.955,1.9545,1.9544,1.9532,1.953,1.953,1.9524,1.9522,1.9522,1.9515,1.9516,1.9525,1.9527,1.9529,1.953,1.9511,0,0,0,0,0,1.9591,1.9589,1.9578,1.958,1.9578,1.9567,1.9565,1.9559,1.9552,1.955,1.9542,1.9536,1.9532,1.9529,1.9525,1.9526,1.9523,1.9527,1.9528,1.953,1.953,1.9529,1.953,1.9515,1.9515,1.9515,0,0,1.9598,1.9591,1.9591,1.9583,1.9578,1.9575,1.9566,1.9564,1.9561,1.9549,1.9547,1.9541,1.9533,1.9533,1.9532,1.9528,1.9533,1.953,1.9531,1.9531,1.953,1.9531,1.9532,1.9516,1.9516,1.9516,0,0,1.961,1.9605,1.9605,1.96,1.9592,1.9585,1.9585,1.9576,1.9571,1.9569,1.9559,1.9556,1.955,1.9544,1.954,1.9549,1.9542,1.9548,1.9555,1.9555,1.9556,1.9557,1.9559,1.956,1.9548,1.9548,1.9548,0,1.9619,1.9616,1.9606,1.9605,1.9601,1.959,1.959,1.9586,1.9577,1.9574,1.957,1.9561,1.9555,1.9552,1.9554,1.9552,1.9551,1.9549,1.9557,1.9557,1.9558,1.956,1.9561,1.9549,1.9549,1.9549,1.9549,0,1.9627,1.9625,1.9626,1.9618,1.9615,1.9614,1.9604,1.9602,1.9595,1.9589,1.9586,1.9578,1.9571,1.957,1.9564,1.9567,1.9564,1.9559,1.9552,1.956,1.9562,1.9563,1.955,1.955,1.955,1.9549,0,0,1.9648,1.9634,1.9635,1.963,1.9621,1.9618,1.9617,1.961,1.9608,1.9602,1.96,1.9594,1.9589,1.9584,1.9577,1.9577,1.9583,1.9571,1.9571,1.9573,1.9584,1.9588,1.9589,1.9578,1.9578,1.9578,1.9584,0,1.9657,1.9654,1.9645,1.9645,1.9642,1.9631,1.9629,1.9623,1.9616,1.9612,1.9605,1.9601,1.9594,1.9591,1.959,1.9582,1.9585,1.9582,1.9575,1.9575,1.9577,1.959,1.9594,1.9601,1.9585,1.9585,1.9585,0,1.9667,1.9662,1.9661,1.9651,1.9649,1.9648,1.9641,1.9638,1.963,1.9625,1.962,1.9613,1.9609,1.9603,1.9598,1.9596,1.9593,1.9589,1.9589,1.9587,1.958,1.9588,1.9602,1.9603,1.9586,1.9586,1.9586,0,1.9682,1.9674,1.9673,1.9669,1.9657,1.9657,1.9652,1.9643,1.964,1.9634,1.9631,1.9625,1.9621,1.9616,1.9606,1.9602,1.9602,1.9595,1.9597,1.9597,1.9597,1.9597,1.961,1.9596,1.9596,1.9596,1.9596,0,1.9692,1.9692,1.9679,1.9678,1.9677,1.9666,1.9665,1.9659,1.9652,1.9649,1.9639,1.9636,1.9624,1.9619,1.9611,1.9608,1.9606,1.9602,1.96,1.9603,1.9603,1.96,1.9599,1.9596,1.9596,1.9596,1.9596,0,1.9708,1.9699,1.9696,1.9685,1.9682,1.9682,1.9672,1.967,1.9663,1.9659,1.9658,1.9646,1.9641,1.963,1.9622,1.9616,1.9614,1.9611,1.9617,1.9615,1.9618,1.9618,1.9629,1.9629,1.9615,1.9616,1.9616,0,1.9715,1.9715,1.9704,1.9701,1.9696,1.9692,1.9689,1.9678,1.9675,1.9665,1.9664,1.9658,1.9652,1.9643,1.9633,1.9626,1.9622,1.9627,1.9621,1.9624,1.9621,1.9621,1.9621,1.9628,1.9628,1.9628,1.9628,0,1.9729,1.9724,1.972,1.9713,1.9709,1.9704,1.9698,1.9696,1.9684,1.968,1.9674,1.967,1.9661,1.9654,1.9645,1.9639,1.9631,1.963,1.963,1.9633,1.9636,1.9634,1.962,1.963,1.963,1.963,1.963,1.9629,1.974,1.9739,1.9731,1.9725,1.972,1.9714,1.9712,1.9704,1.9699,1.9691,1.9685,1.9679,1.967,1.9658,1.9652,1.9647,1.9644,1.9644,1.9644,1.9644,1.9645,1.9637,1.9646,1.9646,1.9645,1.9645,1.9645,0,1.9752,1.9747,1.9742,1.9734,1.973,1.9723,1.9716,1.9713,1.9708,1.97,1.9695,1.9687,1.9681,1.967,1.9663,1.966,1.9656,1.9659,1.9658,1.9657,1.9649,1.9649,1.9662,1.9662,1.9662,1.9662,1.9662,1.9662,1.9758,1.9756,1.975,1.9744,1.9738,1.9733,1.9729,1.9724,1.9718,1.971,1.9704,1.9698,1.9689,1.968,1.9673,1.9671,1.9668,1.9671,1.9667,1.9659,1.9658,1.9656,1.9657,1.9671,1.9671,1.9675,1.9675,1.9675]}]]